Weather History for Shelbyville, IN

Change the Weather History Date:

Friday, May 2, 2014

  Actual Average Record
Temperature  
Mean Temperature 51 °F 58 °F  
Max Temperature 56 °F 69 °F 86 °F (2012)
Min Temperature 45 °F 48 °F 34 °F (2005)
Degree Days  
Heating Degree Days 14 7  
Month to date heating degree days 28 15  
Since 1 July heating degree days 5627 5275  
Cooling Degree Days 0 1  
Month to date cooling degree days 0 2  
Year to date cooling degree days 10 15  
Moisture  
Dew Point 40 °F    
Average Humidity 66    
Maximum Humidity 77    
Minimum Humidity 55    
Precipitation  
Precipitation T in 0.19 in 1.23 in (2006)
Month to date precipitation T 0.38  
Year to date precipitation 11.34 12.88  
Sea Level Pressure  
Sea Level Pressure 29.89 in    
Wind  
Wind Speed 10 mph (WSW)    
Max Wind Speed 18 mph    
Max Gust Speed 23 mph    
Visibility 10 miles    
Events Rain    
T = Trace of Precipitation, MM = Missing Value Source: NWS Daily Summary

Daily Weather History Graph

Daily Weather History Graph

Search for Another Location

Airport:

Trip Planner

Search our weather history database for the weather conditions in past years. The results will help you decide how hot, cold, wet, or windy it might be!

Date:

Astronomy

May. 02, 2014 Rise Set
Actual Time 6:42 AM EDT 8:38 PM EDT
Civil Twilight 6:13 AM EDT 9:07 PM EDT
Nautical Twilight 5:38 AM EDT 9:43 PM EDT
Astronomical Twilight 4:59 AM EDT 10:21 PM EDT
Moon 9:19 AM EDT (5/2) 11:59 PM EDT (5/2)
Length of Visible Light 14h 53m
Length of Day
13h 55m
Waxing Crescent, 12% of the Moon is Illuminated
May 2
Waxing Crescent
May 6
First Quarter
May 14
Full
May 21
Last Quarter
May 28
New

Hourly Weather History & Observations

Time (EDT) Temp. Windchill Dew Point Humidity Pressure Visibility Wind Dir Wind Speed Gust Speed Precip Events Conditions
12:53 AM 50.0 °F - 37.9 °F 63% 29.91 in 10.0 mi WSW 11.5 mph - N/A   Overcast
1:53 AM 50.0 °F - 39.0 °F 66% 29.90 in 10.0 mi West 12.7 mph - 0.00 in Rain Light Rain
2:53 AM 48.9 °F - 39.0 °F 69% 29.88 in 10.0 mi WSW 8.1 mph - 0.00 in   Overcast
3:33 AM 48.9 °F - 39.0 °F 69% 29.88 in 10.0 mi WSW 8.1 mph - N/A   Overcast
3:42 AM 48.9 °F - 39.0 °F 69% 29.88 in 10.0 mi WSW 8.1 mph - N/A   Overcast
3:53 AM 48.9 °F - 39.9 °F 71% 29.88 in 10.0 mi WSW 10.4 mph - N/A   Overcast
4:53 AM 48.9 °F - 39.9 °F 71% 29.88 in 10.0 mi WSW 8.1 mph - N/A   Overcast
5:53 AM 48.0 °F - 39.9 °F 74% 29.87 in 10.0 mi WSW 5.8 mph - N/A   Overcast
6:53 AM 46.0 °F 42.5 °F 39.9 °F 79% 29.88 in 10.0 mi SW 6.9 mph - N/A   Overcast
7:43 AM 46.9 °F - 42.1 °F 83% 29.89 in 10.0 mi SW 5.8 mph - N/A   Mostly Cloudy
7:53 AM 48.0 °F - 41.0 °F 77% 29.90 in 10.0 mi SSW 6.9 mph - N/A   Mostly Cloudy
8:53 AM 50.0 °F - 42.1 °F 74% 29.91 in 10.0 mi WSW 9.2 mph - N/A   Overcast
9:53 AM 51.1 °F - 41.0 °F 68% 29.91 in 10.0 mi WSW 10.4 mph 19.6 mph N/A   Overcast
10:16 AM 51.1 °F - 39.9 °F 66% 29.90 in 10.0 mi West 13.8 mph - N/A   Overcast
10:53 AM 51.1 °F - 39.9 °F 66% 29.91 in 10.0 mi WSW 11.5 mph - N/A   Overcast
11:06 AM 52.0 °F - 39.9 °F 63% 29.91 in 10.0 mi WSW 11.5 mph - N/A   Overcast
11:53 AM 53.1 °F - 39.0 °F 59% 29.92 in 10.0 mi West 15.0 mph - N/A   Overcast
12:53 PM 55.0 °F - 39.0 °F 55% 29.91 in 10.0 mi West 12.7 mph 21.9 mph N/A   Overcast
2:53 PM 55.0 °F - 39.9 °F 57% 29.89 in 10.0 mi WSW 15.0 mph - N/A   Overcast
3:53 PM 55.0 °F - 39.9 °F 57% 29.88 in 10.0 mi West 11.5 mph - N/A   Overcast
4:53 PM 55.9 °F - 41.0 °F 57% 29.87 in 10.0 mi West 12.7 mph - N/A   Overcast
5:53 PM 55.9 °F - 39.0 °F 53% 29.88 in 10.0 mi WSW 16.1 mph - N/A   Overcast
6:53 PM 55.0 °F - 39.0 °F 55% 29.89 in 10.0 mi West 13.8 mph - N/A   Overcast
8:53 PM 53.1 °F - 39.9 °F 61% 29.88 in 10.0 mi SW 10.4 mph - N/A   Overcast
9:53 PM 53.1 °F - 41.0 °F 64% 29.90 in 10.0 mi SW 10.4 mph - N/A   Overcast
10:53 PM 52.0 °F - 41.0 °F 66% 29.89 in 10.0 mi SW 6.9 mph - N/A   Overcast
11:53 PM 51.1 °F - 41.0 °F 68% 29.88 in 10.0 mi SSW 6.9 mph - N/A   Overcast